When you browse on this site, cookies collect data to enhance your experience and personalize the content and advertising you see.
Visit our Privacy Policy to learn more. By continuing to use the site, you agree to this use of cookies and data.
  • In Deutschland
  • Länderverzeichnis
  • Für 7 Tage
  • Wassertemperatur
  • Satellitenkarten
  • Wetterkarte
  • Widgets
  • user-avatar
    Anmelden

    Stündliche Wetter Viedma

    Heute, 21 Mai, Dienstag

    Zeit Temperatur Niederschläge Wind Luftdruck Luftfeuchtigkeit
    00:00 +9°C° 0 mm 1 m/S 768 mmHg 58%
    01:00 +9°C° 0 mm 1 m/S 768 mmHg 57%
    02:00 +8°C° 0 mm 2 m/S 768 mmHg 57%
    03:00 +8°C° 0 mm 2 m/S 768 mmHg 58%
    04:00 +8°C° 0 mm 2 m/S 768 mmHg 60%
    05:00 +7°C° 0 mm 2 m/S 768 mmHg 61%
    06:00 +7°C° 0 mm 2 m/S 768 mmHg 61%
    07:00 +7°C° 0 mm 2 m/S 768 mmHg 61%
    08:00 +8°C° 0 mm 2 m/S 768 mmHg 59%
    09:00 +10°C° 0 mm 2 m/S 768 mmHg 53%
    10:00 +13°C° 0 mm 2 m/S 768 mmHg 48%
    11:00 +15°C° 0 mm 2 m/S 768 mmHg 42%
    12:00 +15°C° 0 mm 2 m/S 768 mmHg 38%
    13:00 +16°C° 0 mm 2 m/S 767 mmHg 34%
    14:00 +17°C° 0 mm 2 m/S 767 mmHg 30%
    15:00 +15°C° 0 mm 2 m/S 767 mmHg 32%
    16:00 +14°C° 0 mm 2 m/S 767 mmHg 34%
    17:00 +13°C° 0 mm 2 m/S 766 mmHg 36%
    18:00 +12°C° 0 mm 2 m/S 766 mmHg 37%
    19:00 +12°C° 0 mm 2 m/S 766 mmHg 38%
    20:00 +10°C° 0 mm 3 m/S 766 mmHg 39%
    21:00 +10°C° 0 mm 3 m/S 766 mmHg 39%
    22:00 +9°C° 0 mm 3 m/S 766 mmHg 40%
    23:00 +9°C° 0 mm 3 m/S 766 mmHg 41%

    Morgen, 22 Mai, Mittwoch

    Zeit Temperatur Niederschläge Wind Luftdruck Luftfeuchtigkeit
    00:00 +8°C° 0 mm 4 m/S 765 mmHg 42%
    01:00 +7°C° 0 mm 4 m/S 765 mmHg 44%
    02:00 +7°C° 0 mm 4 m/S 765 mmHg 46%
    03:00 +7°C° 0 mm 4 m/S 764 mmHg 48%
    04:00 +7°C° 0 mm 5 m/S 764 mmHg 49%
    05:00 +6°C° 0 mm 5 m/S 763 mmHg 50%
    06:00 +7°C° 0 mm 5 m/S 763 mmHg 52%
    07:00 +7°C° 0 mm 5 m/S 763 mmHg 54%
    08:00 +7°C° 0 mm 6 m/S 763 mmHg 56%
    09:00 +9°C° 0 mm 6 m/S 763 mmHg 48%
    10:00 +11°C° 0 mm 7 m/S 763 mmHg 41%
    11:00 +13°C° 0 mm 8 m/S 763 mmHg 34%
    12:00 +15°C° 0 mm 8 m/S 762 mmHg 31%
    13:00 +16°C° 0 mm 8 m/S 761 mmHg 29%
    14:00 +17°C° 0 mm 8 m/S 760 mmHg 26%
    15:00 +16°C° 0 mm 7 m/S 760 mmHg 29%
    16:00 +15°C° 0 mm 6 m/S 760 mmHg 32%
    17:00 +14°C° 0 mm 5 m/S 760 mmHg 34%
    18:00 +13°C° 0 mm 5 m/S 760 mmHg 37%
    19:00 +13°C° 0 mm 5 m/S 759 mmHg 40%
    20:00 +12°C° 0 mm 5 m/S 759 mmHg 44%
    21:00 +12°C° 0 mm 5 m/S 759 mmHg 45%
    22:00 +10°C° 0 mm 5 m/S 759 mmHg 47%
    23:00 +10°C° 0 mm 5 m/S 759 mmHg 49%

    übermorgen, 23 Mai, Donnerstag

    Zeit Temperatur Niederschläge Wind Luftdruck Luftfeuchtigkeit
    00:00 +10°C° 0 mm 5 m/S 759 mmHg 49%
    01:00 +9°C° 0 mm 5 m/S 758 mmHg 50%
    02:00 +9°C° 0 mm 5 m/S 758 mmHg 50%
    03:00 +9°C° 0 mm 5 m/S 758 mmHg 50%
    04:00 +9°C° 0 mm 5 m/S 758 mmHg 51%
    05:00 +8°C° 0 mm 5 m/S 758 mmHg 51%
    06:00 +8°C° 0 mm 4 m/S 758 mmHg 51%
    07:00 +8°C° 0 mm 4 m/S 758 mmHg 51%
    08:00 +8°C° 0 mm 4 m/S 758 mmHg 51%
    09:00 +12°C° 0 mm 4 m/S 758 mmHg 44%
    10:00 +15°C° 0 mm 4 m/S 758 mmHg 37%
    11:00 +18°C° 0 mm 4 m/S 758 mmHg 30%
    12:00 +19°C° 0 mm 5 m/S 757 mmHg 32%
    13:00 +19°C° 0 mm 5 m/S 757 mmHg 33%
    14:00 +20°C° 0 mm 5 m/S 757 mmHg 35%
    15:00 +19°C° 0 mm 4 m/S 756 mmHg 38%
    16:00 +17°C° 0 mm 3 m/S 756 mmHg 42%
    17:00 +16°C° 0 mm 2 m/S 756 mmHg 45%
    18:00 +15°C° 0 mm 2 m/S 756 mmHg 44%
    19:00 +14°C° 0 mm 2 m/S 756 mmHg 43%
    20:00 +14°C° 0 mm 2 m/S 756 mmHg 41%
    21:00 +14°C° 0 mm 2 m/S 756 mmHg 40%
    22:00 +14°C° 0 mm 1 m/S 757 mmHg 39%
    23:00 +13°C° 0 mm 1 m/S 757 mmHg 38%

    24 Mai, Freitag

    Zeit Temperatur Niederschläge Wind Luftdruck Luftfeuchtigkeit
    00:00 +13°C° 0 mm 2 m/S 756 mmHg 39%
    01:00 +13°C° 0 mm 2 m/S 756 mmHg 40%
    02:00 +13°C° 0 mm 2 m/S 756 mmHg 41%
    03:00 +12°C° 0 mm 2 m/S 755 mmHg 42%
    04:00 +12°C° 0 mm 2 m/S 755 mmHg 42%
    05:00 +12°C° 0 mm 2 m/S 755 mmHg 43%
    06:00 +11°C° 0 mm 3 m/S 755 mmHg 41%
    07:00 +11°C° 0 mm 3 m/S 754 mmHg 40%
    08:00 +11°C° 0 mm 3 m/S 754 mmHg 39%
    09:00 +12°C° 0 mm 4 m/S 754 mmHg 35%
    10:00 +14°C° 0 mm 5 m/S 754 mmHg 32%
    11:00 +16°C° 0 mm 5 m/S 754 mmHg 28%
    12:00 +17°C° 0 mm 5 m/S 753 mmHg 26%
    13:00 +19°C° 0 mm 5 m/S 752 mmHg 24%
    14:00 +20°C° 0 mm 5 m/S 752 mmHg 22%
    15:00 +19°C° 0 mm 5 m/S 751 mmHg 23%
    16:00 +17°C° 0 mm 4 m/S 751 mmHg 24%
    17:00 +16°C° 0 mm 3 m/S 751 mmHg 25%
    18:00 +15°C° 0 mm 4 m/S 751 mmHg 24%
    19:00 +14°C° 0 mm 4 m/S 751 mmHg 23%
    20:00 +13°C° 0 mm 4 m/S 751 mmHg 22%
    21:00 +13°C° 0 mm 4 m/S 751 mmHg 22%
    22:00 +12°C° 0 mm 4 m/S 751 mmHg 21%
    23:00 +12°C° 0 mm 4 m/S 752 mmHg 20%

    25 Mai, Samstag

    Zeit Temperatur Niederschläge Wind Luftdruck Luftfeuchtigkeit
    00:00 +12°C° 0 mm 4 m/S 751 mmHg 21%
    01:00 +11°C° 0 mm 4 m/S 751 mmHg 22%
    02:00 +11°C° 0 mm 4 m/S 751 mmHg 23%
    03:00 +11°C° 0 mm 4 m/S 751 mmHg 24%
    04:00 +11°C° 0 mm 3 m/S 751 mmHg 26%
    05:00 +11°C° 0 mm 3 m/S 751 mmHg 27%
    06:00 +10°C° 0 mm 3 m/S 752 mmHg 31%
    07:00 +10°C° 0 mm 2 m/S 752 mmHg 35%
    08:00 +10°C° 0 mm 2 m/S 752 mmHg 39%
    09:00 +13°C° 0 mm 2 m/S 752 mmHg 39%
    10:00 +15°C° 0 mm 2 m/S 753 mmHg 38%
    11:00 +17°C° 0 mm 2 m/S 753 mmHg 38%
    12:00 +17°C° 0 mm 2 m/S 752 mmHg 38%
    13:00 +18°C° 0 mm 2 m/S 752 mmHg 38%
    14:00 +19°C° 0 mm 2 m/S 752 mmHg 38%
    15:00 +17°C° 0 mm 2 m/S 752 mmHg 44%
    16:00 +16°C° 0 mm 2 m/S 752 mmHg 51%
    17:00 +14°C° 0 mm 2 m/S 752 mmHg 58%
    18:00 +14°C° 0 mm 2 m/S 752 mmHg 62%
    19:00 +13°C° 0 mm 2 m/S 753 mmHg 67%
    20:00 +12°C° 0 mm 2 m/S 753 mmHg 71%
    21:00 +12°C° 0 mm 2 m/S 753 mmHg 73%
    22:00 +12°C° 0 mm 2 m/S 753 mmHg 74%
    23:00 +10°C° 0 mm 2 m/S 753 mmHg 75%

    26 Mai, Sonntag

    Zeit Temperatur Niederschläge Wind Luftdruck Luftfeuchtigkeit
    00:00 +10°C° 0 mm 2 m/S 754 mmHg 76%
    01:00 +10°C° 0 mm 2 m/S 754 mmHg 76%
    02:00 +10°C° 0 mm 2 m/S 754 mmHg 77%
    03:00 +9°C° 0 mm 2 m/S 754 mmHg 77%
    04:00 +9°C° 0 mm 2 m/S 754 mmHg 78%
    05:00 +9°C° 0 mm 2 m/S 754 mmHg 79%
    06:00 +9°C° 0 mm 2 m/S 754 mmHg 79%
    07:00 +10°C° 0 mm 2 m/S 754 mmHg 79%
    08:00 +10°C° 0 mm 3 m/S 755 mmHg 79%
    09:00 +12°C° 0 mm 3 m/S 755 mmHg 68%
    10:00 +14°C° 0 mm 4 m/S 755 mmHg 57%
    11:00 +17°C° 0 mm 4 m/S 755 mmHg 46%
    12:00 +18°C° 0 mm 4 m/S 754 mmHg 41%
    13:00 +19°C° 0 mm 4 m/S 754 mmHg 35%
    14:00 +20°C° 0 mm 4 m/S 754 mmHg 30%
    15:00 +19°C° 0 mm 3 m/S 753 mmHg 33%
    16:00 +18°C° 0 mm 3 m/S 753 mmHg 36%
    17:00 +16°C° 0 mm 3 m/S 753 mmHg 40%
    18:00 +16°C° 0 mm 3 m/S 754 mmHg 42%
    19:00 +14°C° 0 mm 3 m/S 754 mmHg 45%
    20:00 +14°C° 0 mm 3 m/S 754 mmHg 47%
    21:00 +14°C° 0 mm 3 m/S 754 mmHg 43%
    22:00 +13°C° 0 mm 4 m/S 754 mmHg 39%
    23:00 +13°C° 0 mm 4 m/S 754 mmHg 35%
    Mehr zeigen